Bellefontaine, OH

6:59 PM EDT on May 23, 2017 (GMT -0400)
Bellefontaine

Weather History for KEDJ - January, 2014

Change the Weather History Date:

Wednesday, January 8, 2014

  Actual Average (KDLZ) Record (KDLZ)
Temperature  
Mean Temperature 16 °F -  
Max Temperature 23 °F 31 °F 64 °F (1937)
Min Temperature 8 °F 14 °F -14 °F (1968)
Degree Days  
Heating Degree Days 50    
Moisture  
Dew Point 11 °F    
Average Humidity 80    
Maximum Humidity 100    
Minimum Humidity 67    
Precipitation  
Precipitation 0.00 in - - ()
Sea Level Pressure  
Sea Level Pressure 30.34 in    
Wind  
Wind Speed - (North)    
Max Wind Speed -    
Max Gust Speed -    
Visibility 8 miles    
Events      
Averages and records for this station are not official NWS values.
T = Trace of Precipitation, MM = Missing Value Source: NWS Daily Summary

Daily Weather History Graph

Daily Weather History Graph

Search for Another Location

Airport or City:

Trip Planner

Search our weather history database for the weather conditions in past years. The results will help you decide how hot, cold, wet, or windy it might be!

Date:

Astronomy

Jan. 08, 2014 Rise Set
Actual Time 7:58 AM EST 5:26 PM EST
Civil Twilight 7:27 AM EST 5:56 PM EST
Nautical Twilight 6:53 AM EST 6:30 PM EST
Astronomical Twilight 6:21 AM EST 7:03 PM EST
Moon 12:18 PM EST (1/8) 1:02 AM EST (1/8)
Length of Visible Light 10h 28m
Length of Day
9h 28m
First Quarter, 56% of the Moon is Illuminated
Jan 8
First Quarter
Jan 15
Full
Jan 24
Last Quarter
Jan 30
New
Feb 6
First Quarter

Hourly Weather History & Observations

Time (EST) Temp. Dew Point Humidity Pressure Visibility Wind Dir Wind Speed Gust Speed Precip Events Conditions
12:10 AM 8.6 °F 1.4 °F 73% 30.30 in 10.0 mi North - - 0.00 in   Clear
12:30 AM 8.6 °F 1.4 °F 73% 30.30 in 10.0 mi North - - 0.00 in   Clear
12:50 AM 8.6 °F 1.4 °F 73% 30.30 in 10.0 mi North - - 0.00 in   Partly Cloudy
1:10 AM 10.4 °F 3.2 °F 73% 30.30 in 10.0 mi North - - 0.00 in   Mostly Cloudy
1:30 AM 10.4 °F 3.2 °F 73% 30.29 in 10.0 mi North - - 0.00 in   Overcast
1:50 AM 10.4 °F 3.2 °F 73% 30.30 in 10.0 mi North - - 0.00 in   Overcast
2:10 AM 10.4 °F 3.2 °F 73% 30.30 in 10.0 mi North - - 0.00 in   Overcast
2:30 AM 10.4 °F 3.2 °F 73% 30.30 in 10.0 mi North - - 0.00 in   Overcast
2:50 AM 12.2 °F 5.0 °F 73% 30.30 in 10.0 mi North - - 0.00 in   Overcast
3:10 AM 12.2 °F 5.0 °F 73% 30.31 in 10.0 mi North - - 0.00 in   Overcast
3:30 AM 12.2 °F 5.0 °F 73% 30.32 in 10.0 mi North - - 0.00 in   Overcast
3:50 AM 12.2 °F 5.0 °F 73% 30.32 in 10.0 mi North - - 0.00 in   Overcast
4:10 AM 14.0 °F 5.0 °F 67% 30.31 in 10.0 mi North - - 0.00 in   Overcast
4:30 AM 14.0 °F 5.0 °F 67% 30.30 in 10.0 mi North - - 0.00 in   Overcast
4:50 AM 14.0 °F 5.0 °F 67% 30.31 in 10.0 mi North - - 0.00 in   Overcast
5:10 AM 12.2 °F 5.0 °F 73% 30.31 in 10.0 mi North - - 0.00 in   Mostly Cloudy
5:30 AM 12.2 °F 5.0 °F 73% 30.31 in 10.0 mi North - - 0.00 in   Partly Cloudy
5:50 AM 10.4 °F 5.0 °F 79% 30.30 in 10.0 mi North - - 0.00 in   Partly Cloudy
6:10 AM 10.4 °F 3.2 °F 73% 30.30 in 10.0 mi North - - 0.00 in   Mostly Cloudy
6:30 AM 10.4 °F 3.2 °F 73% 30.30 in 10.0 mi North - - 0.00 in   Mostly Cloudy
6:50 AM 10.4 °F 3.2 °F 73% 30.30 in 10.0 mi North - - 0.00 in   Mostly Cloudy
7:10 AM 10.4 °F 3.2 °F 73% 30.31 in 10.0 mi North - - 0.00 in   Mostly Cloudy
7:30 AM 10.4 °F 3.2 °F 73% 30.32 in 10.0 mi North - - 0.00 in   Mostly Cloudy
7:50 AM 10.4 °F 3.2 °F 73% 30.32 in 10.0 mi North - - 0.00 in   Scattered Clouds
8:10 AM 10.4 °F 3.2 °F 73% 30.32 in 10.0 mi North - - 0.00 in   Partly Cloudy
8:30 AM 10.4 °F 3.2 °F 73% 30.33 in 10.0 mi North - - 0.00 in   Mostly Cloudy
8:50 AM 10.4 °F 3.2 °F 73% 30.33 in 10.0 mi North - - 0.00 in   Partly Cloudy
9:10 AM 12.2 °F 5.0 °F 73% 30.34 in 10.0 mi North - - 0.00 in   Scattered Clouds
9:30 AM 12.2 °F 5.0 °F 73% 30.35 in 10.0 mi North - - 0.00 in   Partly Cloudy
9:50 AM 12.2 °F 5.0 °F 73% 30.35 in 10.0 mi North - - 0.00 in   Clear
10:10 AM 12.2 °F 5.0 °F 73% 30.36 in 10.0 mi North - - 0.00 in   Clear
10:30 AM 14.0 °F 6.8 °F 73% 30.36 in 10.0 mi North - - 0.00 in   Clear
10:50 AM 15.8 °F 8.6 °F 73% 30.36 in 10.0 mi North - - 0.00 in   Clear
11:10 AM 17.6 °F 10.4 °F 73% 30.36 in 10.0 mi North - - 0.00 in   Clear
11:30 AM 19.4 °F 10.4 °F 68% 30.35 in 10.0 mi North - - 0.00 in   Mostly Cloudy
11:50 AM 19.4 °F 10.4 °F 68% 30.34 in 10.0 mi North - - 0.00 in   Mostly Cloudy
12:10 PM 19.4 °F 12.2 °F 74% 30.33 in 10.0 mi North - - 0.00 in   Scattered Clouds
12:30 PM 19.4 °F 12.2 °F 74% 30.32 in 10.0 mi North - - 0.00 in   Mostly Cloudy
12:50 PM 19.4 °F 12.2 °F 74% 30.32 in 10.0 mi North - - 0.00 in   Overcast
1:10 PM 21.2 °F 14.0 °F 74% 30.31 in 7.0 mi North - - 0.00 in   Overcast
1:30 PM 21.2 °F 14.0 °F 74% 30.30 in 7.0 mi North - - 0.00 in   Mostly Cloudy
1:50 PM 21.2 °F 15.8 °F 80% 30.31 in 4.0 mi North - - 0.00 in   Scattered Clouds
2:10 PM 21.2 °F 15.8 °F 80% 30.32 in 8.0 mi North - - 0.00 in   Partly Cloudy
2:30 PM 21.2 °F 17.6 °F 86% 30.31 in 3.0 mi North - - 0.00 in   Scattered Clouds
2:50 PM 21.2 °F 17.6 °F 86% 30.32 in 3.0 mi North - - 0.00 in   Mostly Cloudy
3:10 PM 21.2 °F 17.6 °F 86% 30.32 in 5.0 mi North - - 0.00 in   Clear
3:30 PM 21.2 °F 17.6 °F 86% 30.33 in 5.0 mi North - - 0.00 in   Partly Cloudy
3:50 PM 21.2 °F 17.6 °F 86% 30.33 in 5.0 mi North - - 0.00 in   Mostly Cloudy
4:10 PM 21.2 °F 17.6 °F 86% 30.33 in 9.0 mi North - - 0.00 in   Scattered Clouds
4:30 PM 23.0 °F 17.6 °F 80% 30.33 in 10.0 mi North - - 0.00 in   Mostly Cloudy
4:50 PM 23.0 °F 17.6 °F 80% 30.34 in 6.0 mi North - - 0.00 in   Partly Cloudy
5:10 PM 23.0 °F 17.6 °F 80% 30.34 in 3.0 mi North - - 0.00 in   Scattered Clouds
5:30 PM 21.2 °F 19.4 °F 93% 30.35 in 5.0 mi North - - 0.00 in   Mostly Cloudy
5:50 PM 21.2 °F 19.4 °F 93% 30.35 in 5.0 mi North - - 0.00 in   Mostly Cloudy
6:10 PM 21.2 °F 19.4 °F 93% 30.36 in 7.0 mi North - - 0.00 in   Mostly Cloudy
6:30 PM 21.2 °F 19.4 °F 93% 30.36 in 6.0 mi North - - 0.00 in   Overcast
6:50 PM 23.0 °F 21.2 °F 93% 30.36 in 7.0 mi North - - 0.00 in   Overcast
7:10 PM 23.0 °F 21.2 °F 93% 30.37 in 10.0 mi North - - 0.00 in   Overcast
7:30 PM 23.0 °F 21.2 °F 93% 30.38 in 10.0 mi North - - 0.00 in   Overcast
7:50 PM 23.0 °F 21.2 °F 93% 30.38 in 8.0 mi North - - 0.00 in   Overcast
8:10 PM 23.0 °F 21.2 °F 93% 30.38 in 7.0 mi North - - 0.00 in   Overcast
8:30 PM 21.2 °F 21.2 °F 100% 30.38 in 9.0 mi North - - 0.00 in   Overcast
8:50 PM 21.2 °F 21.2 °F 100% 30.39 in 10.0 mi North - - 0.00 in   Overcast
9:10 PM 21.2 °F 21.2 °F 100% 30.40 in 8.0 mi North - - 0.00 in   Mostly Cloudy
9:30 PM 21.2 °F 19.4 °F 93% 30.41 in 3.0 mi North - - 0.00 in   Mostly Cloudy
9:50 PM 21.2 °F 19.4 °F 93% 30.41 in 3.0 mi North - - 0.00 in   Overcast
10:10 PM 21.2 °F 19.4 °F 93% 30.42 in 3.0 mi North - - 0.00 in   Overcast
10:30 PM 21.2 °F 19.4 °F 93% 30.42 in 4.0 mi North - - 0.00 in   Mostly Cloudy
10:50 PM 21.2 °F 19.4 °F 93% 30.43 in 4.0 mi North - - 0.00 in   Scattered Clouds
11:10 PM 19.4 °F 19.4 °F 100% 30.43 in 5.0 mi North - - 0.00 in   Scattered Clouds
11:30 PM 19.4 °F 19.4 °F 100% 30.43 in 5.0 mi North - - 0.00 in   Overcast
11:50 PM 19.4 °F 19.4 °F 100% 30.43 in 5.0 mi North - - 0.00 in   Overcast